Location: Ariel
(45.9570°N, 122.5700°W)
Time: 02:02:47
(UTC-07:00)

Tiros 1 - Pass Details

Date: 20 July 2019
Orbit: 631 x 664 km, 48.4° (Epoch: 25 August)

Event Time Altitude Azimuth Distance (km) Brightness Sun altitude
Rises 14:58:20 0° 254° (WSW) 2,989 11.0 57.2°
Reaches altitude 10° 15:00:41 10° 255° (WSW) 2,079 10.4 56.9°
Maximum altitude 15:05:30 83° 343° (NNW) 672 8.3 56.3°
Drops below altitude 10° 15:10:20 10° 73° (ENE) 2,081 9.6 55.6°
Sets 15:12:41 0° 74° (ENE) 2,992 10.2 55.3°
